Regional Weather Roundup
Issued by NWS

Home | Current Version | Previous Version | Text Only | Print | Product List | Glossary On
Versions: 1 2 3 4 5 6 7 8 9 10 11 12 13 14 15 16 17 18 19 20 21 22 23 24 25 26 27 28 29 30 31 32 33 34 35 36 37 38 39 40 41 42 43 44 45 46 47 48 49 50
000
ASUS43 KDTX 020010
RWRMI
MICHIGAN HOURLY REGIONAL WEATHER ROUNDUP
NATIONAL WEATHER SERVICE DETROIT/PONTIAC MI
700 PM EST SUN FEB 01 2015

NOTE: "FAIR" INDICATES FEW OR NO CLOUDS BELOW 12,000 FEET WITH NO
SIGNIFICANT WEATHER AND/OR OBSTRUCTION TO VISIBILITY.

MIZ047>049-052>055-059>063-066>070-074>076-081>083-020100-
SOUTHEAST LOWER MICHIGAN

CITY           SKY/WX    TMP DP  RH WIND       PRES   REMARKS
ADRIAN         SNOW      20  17  88 NE20G28   29.71F VSB 1/2
6HR MIN TEMP:  20; 6HR MAX TEMP:  24; 6HR PCP: TRACE;

ALMA           LGT SNOW  14  11  90 N16G23    29.90F VSB 1   WCI  -2
ANN ARBOR      SNOW      19  16  88 NE17G24   29.74F VSB 1/2
BAD AXE        LGT SNOW  16  14  91 NE14G23   29.94F
DETROIT CITY   SNOW      21  16  81 NE15G28   29.80F VSB 1/2
6HR MIN TEMP:  21; 6HR MAX TEMP:  23; 6HR PCP:  0.09;

DETROIT        SNOW      20  17  88 NE16G22   29.77F VSB 1/2
6HR MIN TEMP:  20; 6HR MAX TEMP:  23; 6HR PCP:  0.25;

FLINT          LGT SNOW  18  12  77 NE21      29.84F VSB 1
6HR MIN TEMP:  17; 6HR MAX TEMP:  19; 6HR PCP:  0.16;

GROSSE ILE     LGT SNOW  19  18  93 NE24G30   29.75F
HILLSDALE      LGT SNOW  21  18  89 NE12G20   29.68S
6HR MIN TEMP:  21; 6HR MAX TEMP:  24;

HOWELL         LGT SNOW  16  14  93 NE12G17   29.78F
6HR MIN TEMP:  15; 6HR MAX TEMP:  19;


CITY           SKY/WX    TMP DP  RH WIND       PRES   REMARKS
JACKSON        SNOW      16  12  84 NE17G23   29.74F VSB 1/4
6HR MIN TEMP:  16; 6HR MAX TEMP:  22; 6HR PCP:  0.29;

LAMBERTVILLE   LGT SNOW  27  21  80 NE9       29.71F VSB 1
LANSING        LGT SNOW  15  10  80 NE17G28   29.83F VSB 1   WCI  -1
6HR MIN TEMP:  14; 6HR MAX TEMP:  18; 6HR PCP:  0.13;

LAPEER         NOT AVBL
MASON          LGT SNOW  15  12  88 NE16G22   29.78F WCI  -1
6HR MIN TEMP:  15; 6HR MAX TEMP:  19;

MONROE         LGT SNOW  21  19  93 NE13G25   29.72F VSB 1
MT. CLEMENS    LGT SNOW  19  16  88 NE17      29.80F VSB 3/4
6HR MIN TEMP:  19; 6HR MAX TEMP:  22; 6HR PCP:  0.23;

PONTIAC        SNOW      18  15  88 NE16G26   29.78F VSB 1/2
6HR MIN TEMP:  18; 6HR MAX TEMP:  20; 6HR PCP:  0.04;

PORT HOPE        N/A     17  13  84 NE23G33   29.97F WCI  -1
6HR MIN TEMP:  16; 6HR MAX TEMP:  17; 6HR PCP:  0.04;

PORT HURON     LGT SNOW  18  14  86 NE14G23   29.87F VSB 1
TRI CITIES     SNOW      17  12  80 NE28G35   29.93F VSB 1/2 WCI  -2
6HR MIN TEMP:  16; 6HR MAX TEMP:  17; 6HR PCP: TRACE;

YPSILANTI      SNOW      22  16  78 NE20      29.76F VSB 1/2
6HR MIN TEMP:  22; 6HR MAX TEMP:  26; 6HR PCP: TRACE;

$$
MIZ043>046-050>051-056>058-064>065-071>073-077>080-020100-
SOUTHWEST LOWER MICHIGAN

CITY           SKY/WX    TMP DP  RH WIND       PRES   REMARKS
BATTLE CREEK   LGT SNOW  16  11  80 NE22G30   29.76S VSB 3/4 WCI  -2
6HR MIN TEMP:  16; 6HR MAX TEMP:  22; 6HR PCP:  0.02;

BENTON HARBOR  SNOW      16  13  88 NE15G30   29.74F VSB 1/2
6HR MIN TEMP:  16; 6HR MAX TEMP:  22; 6HR PCP:  0.03;

BIG RAPIDS     LGT SNOW  11   8  88 NE10G17   29.92S WCI  -2
6HR MIN TEMP:  11; 6HR MAX TEMP:  14;

COLDWATER      LGT SNOW  18  15  90 MISG      29.71S
6HR MIN TEMP:  18; 6HR MAX TEMP:  24;

HOLLAND        LGT SNOW  16  10  77 NE15G26   29.83S VSB 1
6HR MIN TEMP:  16; 6HR MAX TEMP:  19; 6HR PCP:  0.04;

GRAND RAPIDS   LGT SNOW  14  10  84 NE18G38   29.84S VSB 3/4 WCI  -3
6HR MIN TEMP:  14; 6HR MAX TEMP:  17; 6HR PCP:  0.12;

KALAMAZOO      LGT SNOW  16  11  80 NE15G24   29.77R VSB 3/4
6HR MIN TEMP:  16; 6HR MAX TEMP:  22; 6HR PCP:  0.11;

MARSHALL       LGT SNOW  14  11  87 NE8G20    29.75S
MUSKEGON       SNOW      14   9  80 NE17G29   29.88F VSB 1/2 WCI  -3
6HR MIN TEMP:  14; 6HR MAX TEMP:  17; 6HR PCP:  0.11;

$$
MIZ016>042-020100-
NORTHERN LOWER MICHIGAN

CITY           SKY/WX    TMP DP  RH WIND       PRES   REMARKS
ALPENA         LGT SNOW   7   3  84 NE10      30.11F FOG     WCI  -8
6HR MIN TEMP:   6; 6HR MAX TEMP:   8; 6HR PCP: TRACE;

BEAVER ISLAND  CLOUDY     1 -12  55 CALM      30.17F
6HR MIN TEMP:  -1; 6HR MAX TEMP:   2;

BELLAIRE       CLOUDY     8  -1  66 N10       30.10F WCI  -6
6HR MIN TEMP:   8; 6HR MAX TEMP:  10;

CADILLAC       LGT SNOW   7   2  81 NE15      29.94S WCI -11
CHARLEVOIX     CLOUDY     4  -2  77 NE12      30.16S WCI -12
6HR MIN TEMP:   4; 6HR MAX TEMP:   7;

FRANKFORT      CLOUDY    10   3  72 NE12      30.05F WCI  -4
GAYLORD        CLOUDY     2  -2  83 NE14G21   30.03S WCI -16
6HR MIN TEMP:   2; 6HR MAX TEMP:   5;

GRAYLING       CLOUDY     6  -2  70 NE18      30.03S WCI -14
6HR MIN TEMP:   6; 6HR MAX TEMP:   8;

HARBOR SPRINGS CLOUDY     2  -3  77 NE12      30.13F WCI -14
HOUGHTON LAKE  LGT SNOW   6   0  76 NE13G24   29.98F WCI -10
6HR MIN TEMP:   6; 6HR MAX TEMP:  11; 6HR PCP:  0.01;

MANISTEE       CLOUDY    10   1  67 NE14      30.02S WCI  -5
OSCODA         CLOUDY    14   8  78 NE21G26   30.03F HAZE    WCI  -4
PELLSTON       CLOUDY     3  -5  69 NE12      30.16F WCI -13
6HR MIN TEMP:   2; 6HR MAX TEMP:   6; 6HR PCP: TRACE;

TRAVERSE CITY  CLOUDY    10  -1  61 NE14G22   30.06F WCI  -6
6HR MIN TEMP:  10; 6HR MAX TEMP:  12;

$$
MIZ007>008-015-020100-
EASTERN UPPER MICHIGAN

CITY           SKY/WX    TMP DP  RH WIND       PRES   REMARKS
KINROSS        CLOUDY    -4  -9  77 N6        30.18F
6HR MIN TEMP:  -4; 6HR MAX TEMP:   0;

MACKINAC ISLAN CLOUDY     1 -11  57 NE13G18   30.17F WCI -16
6HR MIN TEMP:  -1; 6HR MAX TEMP:   2;

NEWBERRY       CLOUDY    -2  -9  72 N6        30.18S
6HR MIN TEMP:  -3; 6HR MAX TEMP:   1;

S. S. MARIE    MOCLDY     1 -10  60 NE3       30.19F
6HR MIN TEMP:  -4; 6HR MAX TEMP:   1;

$$
MIZ004>006-011>014-085-020100-
CENTRAL UPPER MICHIGAN

CITY           SKY/WX    TMP DP  RH WIND       PRES   REMARKS
MANISTIQUE     CLOUDY     4  -6  63 N10       30.18S WCI -11
6HR MIN TEMP:   2; 6HR MAX TEMP:   5;

ESCANABA       CLOUDY     9   1  72 NE8       30.17F
6HR MIN TEMP:   7; 6HR MAX TEMP:  10;

MENOMINEE      CLOUDY    10   0  61 NE12G20   30.13F WCI  -4
6HR MIN TEMP:   9; 6HR MAX TEMP:  10;

SAWYER-GWINN   LGT SNOW   9   3  78 NE13G18   30.13F WCI  -7
$$
MIZ001>003-009>011-084-020100-
WESTERN UPPER MICHIGAN

CITY           SKY/WX    TMP DP  RH WIND       PRES   REMARKS
IRON MOUNTAIN  MOCLDY     9  -1  64 N15       30.13S WCI  -8
6HR MIN TEMP:   8; 6HR MAX TEMP:  12;

HOUGHTON       CLOUDY     3  -1  83 N3        30.21S
6HR MIN TEMP:   3; 6HR MAX TEMP:   9; 6HR PCP: TRACE;

COPPER HARBOR    N/A      9  -1  64 NE12      30.25F WCI  -6
6HR MIN TEMP:   8; 6HR MAX TEMP:  10;

IRONWOOD       CLOUDY     9   5  85 NE7       30.17S
6HR MIN TEMP:   9; 6HR MAX TEMP:  12;

$$

ABBREVIATIONS USED IN REMARKS
   TC - TEMPERATURE IN CELSIUS
  WCI - WIND CHILL INDEX
   HX - HEAT INDEX
  VSB - VISIBILITY



USA.gov is the U.S. government's official web portal to all federal, state and local government web resources and services.